www.pogodaiklimat.ru

Погода и климат >> Архив погоды >> Бангладеш >> Маиидиcурт


ПОГОДА в Маиидиcурте

  • Прогноз погоды в Маиидиcурте
  • Монитор погоды в Маиидиcурте

АРХИВ ПОГОДЫ в Маиидиcурте

Время (UTC), дата Ветер
(напр.,м/с)
 
Видим.   Явления Облачность Т
(С)
Тd
(С)
f
(%)
Тe
(С)
Тes
(С)
Комфортность P
(гПа)
Po
(гПа)
Тmin
(С)
Tmax
(С)
R
(мм)
R24
(мм)
S
(см)
15 15.09 штиль 0 3000 м 3/0
[Ac trans]
+28.5 +27.0 92 +45 +45 опасность
перегрева
1005.7 1005.1
18 15.09 штиль 0 3000 м 3/3 540 м
[Sc]
+28.0 +27.0 94 +44 +44 опасность
перегрева
1006.2 1005.7
00 16.09 штиль 0 4000 м 5/1 540 м
[Sc Ac trans]
+27.6 +27.6 100 +45 +45 опасность
перегрева
1006.0 1005.5
03 16.09 Ю 1 5000 м 4/4 750 м
[Cu med, cong]
+33.0 +25.0 63 +47 +54 опасность
перегрева
1006.9 1006.3 +27.4
06 16.09 ЮВ 2 5000 м 9/4 540 м
[Sc Ac As]
+33.0 +26.0 67 +49 +54 опасность
перегрева
1006.5 1005.9
09 16.09 штиль 0 6000 м в посл. час дождь 5/1 750 м
[Cu hum Ac trans]
+30.4 +26.0 77 +45 +54 опасность
перегрева
1003.3 1002.7
12 16.09 штиль 0 4000 м {дождь} 6/1 480 м
[Sc Ac trans]
+30.0 +28.0 89 +50 +50 опасность
перегрева
1002.9 1002.3 +34.0 4
15 16.09 штиль 0 3000 м 6/0
[Ac trans]
+28.4 +27.0 92 +45 +45 опасность
перегрева
1005.6 1005.1
18 16.09 штиль 0 3000 м 8/0
[Ac trans]
+28.0 +27.0 94 +44 +44 опасность
перегрева
1006.6 1006.1
21 16.09 штиль 0 3000 м 5/0
[Ac trans]
+27.8 +27.0 95 +44 +44 опасность
перегрева
1006.2 1005.7
00 17.09 штиль 0 4000 м 8/0
[Ac trans]
+27.4 +26.0 92 +41 +41 опасность
перегрева
1005.8 1005.3
03 17.09 Ю 1 6000 м 4/4 750 м
[Cu med, cong]
+32.0 +27.0 75 +50 +57 опасность
перегрева
1008.4 1007.9 +27.0
06 17.09 ЮВ 2 5000 м 5/5 540 м
[Sc diur, vesp]
+33.3 +26.0 66 +49 +59 опасность
перегрева
1007.5 1006.9
09 17.09 ЮВ 1 6000 м 5/5 540 м
[Sc diur, vesp]
+33.8 +25.0 60 +47 +53 опасность
перегрева
1005.3 1004.7
12 17.09 штиль 0 5000 м 1/1 750 м
[Cu hum]
+31.5 +27.0 77 +49 +49 опасность
перегрева
1005.6 1005.0 +34.0
15 17.09 штиль 0 3000 м ясно +29.0 +28.0 94 +48 +48 опасность
перегрева
1007.0 1006.4
18 17.09 штиль 0 3000 м ясно +28.6 +28.0 97 +47 +47 опасность
перегрева
1007.8 1007.2
00 18.09 штиль 0 4000 м 10/5 480 м
[Sc As op]
+28.2 +28.0 99 +47 +47 опасность
перегрева
1008.5 1007.9
03 18.09 В 1 5000 м 10/5 480 м
[Sc As op]
+28.6 +26.0 86 +43 +44 опасность
перегрева
1010.4 1009.8 +27.6
06 18.09 ЮВ 1 5000 м 8/4 540 м
[Sc Ac trans]
+32.0 +25.0 67 +46 +54 опасность
перегрева
1010.0 1009.4
09 18.09 В 1 6000 м 6/1 750 м
[Cu hum Ac trans]
+34.0 +26.0 63 +50 +56 опасность
перегрева
1007.6 1007.1
12 18.09 штиль 0 5000 м 4/1 540 м
[Sc Ac trans]
+31.2 +26.0 74 +47 +47 опасность
перегрева
1007.3 1006.7 +34.2
15 18.09 штиль 0 3000 м ясно +29.0 +28.0 94 +48 +48 опасность
перегрева
1009.6 1009.0
18 18.09 штиль 0 3000 м ясно +28.6 +28.0 97 +47 +47 опасность
перегрева
1010.6 1010.0
21 18.09 штиль 0 3000 м ясно +28.4 +27.0 92 +45 +45 опасность
перегрева
1010.1 1009.5
00 19.09 штиль 0 4000 м мгла 3/3 540 м
[Sc]
+28.0 +27.0 94 +44 +44 опасность
перегрева
1009.6 1009.0
03 19.09 В 1 6000 м 3/3 600 м
[Cu hum]
+33.0 +27.0 71 +51 +59 опасность
перегрева
1010.4 1009.8 +27.5
06 19.09 СВ 1 6000 м 4/4 600 м
[Cu med, cong]
+34.2 +26.0 62 +50 +63 опасность
перегрева
1009.4 1008.9
09 19.09 СВ 1 6000 м 3/3 600 м
[Cu med, cong]
+35.2 +25.0 56 +49 +56 опасность
перегрева
1006.5 1006.0
12 19.09 штиль 0 5000 м 3/1 600 м
[Cu hum Ci fib]
+32.4 +26.0 69 +48 +48 опасность
перегрева
1006.5 1006.0 +35.5
15 19.09 штиль 0 3000 м ясно +30.0 +29.0 94 +52 +52 опасность
перегрева
1009.2 1008.7
18 19.09 штиль 0 3000 м ясно +29.5 +29.0 97 +51 +51 опасность
перегрева
1009.9 1009.4
00 20.09 штиль 0 4000 м 4/0
[Ac trans]
+28.4 +27.0 92 +45 +45 опасность
перегрева
1008.6 1008.0
03 20.09 СВ 2 6000 м 4/3 750 м
[Cu hum Ac trans]
+32.6 +28.0 77 +53 +60 опасность
перегрева
1009.3 1008.8 +28.0
06 20.09 штиль 0 5000 м 10/5 480 м
[Sc As op]
+32.6 +27.0 72 +50 +53 опасность
перегрева
1009.2 1008.7
09 20.09 ЮЗ 2 5000 м 10/5 480 м
[Sc As op]
+30.0 +24.0 70 +41 +42 опасность
перегрева
1005.9 1005.3
12 20.09 штиль 0 4000 м 5/5 540 м
[Sc]
+32.6 +27.0 72 +50 +50 опасность
перегрева
1005.1 1004.6 +35.0
15 20.09 ЮЗ 2 3000 м ясно +29.0 +28.0 94 +48 +48 опасность
перегрева
1008.3 1007.7
18 20.09 ЮЗ 1 3000 м ясно +28.6 +28.0 97 +47 +47 опасность
перегрева
1008.7 1008.1
00 21.09 штиль 0 4000 м 5/5 540 м
[Sc]
+27.5 +27.0 97 +43 +43 опасность
перегрева
1007.7 1007.1
03 21.09 Ю 2 4000 м 10/5 480 м
[Sc As op]
+29.2 +28.0 93 +48 +49 опасность
перегрева
1009.2 1008.6 +27.4
06 21.09 штиль 0 5000 м 8/5 500 м
[Sc diur, vesp As op]
+31.6 +28.0 81 +52 +58 опасность
перегрева
1007.6 1007.0
09 21.09 штиль 0 5000 м 8/5 500 м
[Sc diur, vesp As op]
+32.6 +28.0 77 +53 +56 опасность
перегрева
1004.7 1004.1
12 21.09 штиль 0 4000 м 8/5 500 м
[Sc diur, vesp As op]
+29.5 +26.0 81 +44 +44 опасность
перегрева
1006.2 1005.6 +33.0
15 21.09 штиль 0 4000 м 8/4 500 м
[Sc As op]
+28.4 +26.0 87 +43 +43 опасность
перегрева
1008.4 1007.9
18 21.09 штиль 0 4000 м 8/3 500 м
[Sc As op]
+28.0 +27.0 94 +44 +44 опасность
перегрева
1008.6 1008.0
21 21.09 штиль 0 4000 м 8/3 500 м
[Sc As op]
+27.6 +27.0 97 +43 +43 опасность
перегрева
1008.2 1007.7
00 22.09 штиль 0 4000 м 10/4 480 м
[Sc As op]
+27.6 +27.0 97 +43 +43 опасность
перегрева
1009.2 1008.6
03 22.09 штиль 0 5000 м 5/4 500 м
[Sc diur, vesp Ac trans]
+32.6 +28.0 77 +53 +60 опасность
перегрева
1010.3 1009.7 +27.4
06 22.09 Ю 2 5000 м 5/4 500 м
[Sc diur, vesp Ac trans]
+34.2 +26.0 62 +50 +60 опасность
перегрева
1009.5 1009.0
09 22.09 штиль 0 5000 м 10/5 500 м
[Sc diur, vesp As op]
+33.4 +25.0 62 +47 +49 опасность
перегрева
1006.0 1005.4
12 22.09 Ю 2 4000 м {дождь} 10/8 270 м
[St As op]
+28.0 +26.0 89 +42 +42 опасность
перегрева
1009.1 1008.5 +34.5 9

 

Местоположение метеостанции Маиидиcурт (Бангладеш): широта 22.87 долгота 91.10 высота над уровнем моря 6 м.

В архиве по умолчанию представлена погода в Маиидиcурте за последнюю неделю. Архивные данные за месяц целиком и за предыдущие месяцы, начиная с января 2011 года, Вы можете получить, выбрав интересующий диапазон дат из раскрывающегося списка и нажав кнопку "Ввод!".


*Определитесь, кто Вы:
робот инопланетянин человек

Внимание! Время в таблицах - всемирное. Для получения местного времени необходимо прибавить поправку, которая равна 6.5 ч.

Смотрите также архив погоды в соседних городах и на ближайших метеорологических станциях:

Погода в Фени (Бангладеш) (37 км)
Погода в Хатии (Бангладеш) (49 км)
Погода в Бхоле (Бангладеш) (51 км)
Погода в Сандвипе (Бангладеш) (55 км)
Погода в Чандпуре (Бангладеш) (60 км)
Погода в Комилле (Бангладеш) (63 км)
Погода в Ситакунду (Бангладеш) (69 км)
Погода в Барисале (Бангладеш) (76 км)
Погода в Патуакхали (Бангладеш) (99 км)
Погода в Читтагонге (Бангладеш) (100 км)

Пояснения к столбцам:

Ветер - указаны скорость ветра в м/с - средняя за 10 мин, порывы в срок и между сроками (в фигурных скобках) и направление, откуда дует ветер: С - северный, СВ - северо-восточный, В - восточный, ЮВ - юго-восточный, Ю - южный, ЮЗ - юго-западный, З - западный, СЗ - северо-западный.
Видимость - горизонтальная дальность видимости в метрах или километрах. При видимости от 1 до 10 км при отсутствии осадков обычно наблюдается дымка, при ухудшении видимости до 1 км и менее - туман. В сухую погоду видимость может ухудшаться дымом, пылью или мглою.
Явления - указаны атмосферные явления, наблюдавшиеся в срок или в последний час перед сроком; фигурными скобками обозначены явления, наблюдавшиеся между сроками (за 1-3 часа до срока); квадратными скобками обозначены град или гололедные отложения с указанием их диаметра в мм.
Облачность - указаны через наклонную черту общая и нижняя облачность в баллах и высота нижней границы облаков в метрах; квадратными скобками обозначены формы облаков: Ci - перистые, Cs - перисто-слоистые, Cc - перисто-кучевые, Ac - высококучевые, As - высокослоистые, Sc - слоисто-кучевые, Ns - слоисто-дождевые, Cu - кучевые, Cb - кучево-дождевые. Подробнее классификацию облаков см. в Атласе облаков (PDF).
T - Температура воздуха - температура, измеренная на высоте 2 м над землей.
Td - Температура точки росы - температура, при понижении до которой содержащийся в воздухе водяной пар достигнет насыщения.
f - Относительная влажность воздуха - влажноcть воздуха, измеренная на высоте 2 м над землей.
Te - Эффективная температура - температура, которую ощущает одетый по сезону человек в тени. Характеристика душности погоды. При расчете учитывается влияние влажности воздуха и скорости ветра на теплоощущения человека.
Tes - Эффективная температура на солнце - температура, которую ощущает человек, с поправкой на солнечный нагрев. Характеристика знойности погоды. Зависит от высоты солнца над горизонтом, облачности и скорости ветра. Ночью, в пасмурную погоду, а также при ветре 12 м/с и более поправка равна нулю.
P - Атмосферное давление - приведенное к уровню моря атмосферное давление.
Po - Атмосферное давление - измеренное на уровне метеостанции атмосферное давление.
Tmin - Минимальная температура - минимум температуры воздуха на высоте 2 м над землей.
Tmax - Максимальная температура - максимум температуры воздуха на высоте 2 м над землей.
R - Количество осадков - Количество выпавших осадков за период времени, мм. При наведении курсора мыши на число - период времени, за который выпало указанное количество осадков.
R24 - Количество осадков - Количество выпавших осадков за 24 часа, мм.
S - Снежный покров - Высота снежного покрова, см. При наведении курсора мыши на число - состояние снежного покрова и степень покрытия местности в баллах.